When you browse on this site, cookies collect data to enhance your experience and personalize the content and advertising you see.
Visit our Privacy Policy to learn more. By continuing to use the site, you agree to this use of cookies and data.
  • In Hungary
  • List of Countries
  • For 7 days
  • Water Temperature
  • Satellite Maps
  • Weather Map
  • News
  • Weather Widgets
  • user-avatar
    Login

    Hourly Weather Mazancowice

    Today, 18 January, Friday

    Time Temperature Precipitation Wind Pressure Humidity
    00:00 +1°C° 0.1 mm 4 mps 727 mmHg 86%
    01:00 +1°C° 0 mm 4 mps 727 mmHg 89%
    02:00 +1°C° 0.1 mm 4 mps 728 mmHg 89%
    03:00 +1°C° 0.1 mm 4 mps 728 mmHg 89%
    04:00 0°C° 0.1 mm 4 mps 728 mmHg 89%
    05:00 0°C° 0.1 mm 4 mps 729 mmHg 88%
    06:00 -1°C° 0.1 mm 4 mps 729 mmHg 88%
    07:00 -1°C° 0.1 mm 4 mps 729 mmHg 87%
    08:00 -1°C° 0 mm 4 mps 730 mmHg 85%
    09:00 -1°C° 0 mm 4 mps 730 mmHg 83%
    10:00 -1°C° 0 mm 4 mps 731 mmHg 81%
    11:00 -1°C° 0.1 mm 4 mps 731 mmHg 81%
    12:00 -1°C° 0.1 mm 4 mps 732 mmHg 80%
    13:00 -1°C° 0.1 mm 4 mps 732 mmHg 79%
    14:00 -2°C° 0.1 mm 4 mps 733 mmHg 80%
    15:00 -3°C° 0.1 mm 4 mps 734 mmHg 81%
    16:00 -2°C° 0.1 mm 3 mps 734 mmHg 82%
    17:00 -4°C° 0 mm 3 mps 735 mmHg 83%
    18:00 -4°C° 0 mm 2 mps 735 mmHg 85%
    19:00 -4°C° 0 mm 2 mps 736 mmHg 86%
    20:00 -3°C° 0 mm 1 mps 737 mmHg 86%
    21:00 -3°C° 0 mm 1 mps 737 mmHg 87%
    22:00 -3°C° 0 mm 1 mps 737 mmHg 87%
    23:00 -3°C° 0 mm 1 mps 738 mmHg 88%

    Tomorrow, 19 January, Saturday

    Time Temperature Precipitation Wind Pressure Humidity
    00:00 -4°C° 0 mm 1 mps 738 mmHg 88%
    01:00 -4°C° 0 mm 1 mps 738 mmHg 88%
    02:00 -4°C° 0 mm 1 mps 738 mmHg 88%
    03:00 -6°C° 0 mm 1 mps 738 mmHg 87%
    04:00 -7°C° 0 mm 2 mps 738 mmHg 87%
    05:00 -7°C° 0 mm 2 mps 738 mmHg 85%
    06:00 -7°C° 0 mm 2 mps 738 mmHg 83%
    07:00 -7°C° 0 mm 2 mps 738 mmHg 82%
    08:00 -6°C° 0 mm 2 mps 738 mmHg 78%
    09:00 -3°C° 0 mm 1 mps 739 mmHg 74%
    10:00 -2°C° 0 mm 1 mps 739 mmHg 70%
    11:00 -1°C° 0 mm 1 mps 738 mmHg 67%
    12:00 0°C° 0 mm 1 mps 738 mmHg 64%
    13:00 +1°C° 0 mm 1 mps 738 mmHg 60%
    14:00 0°C° 0 mm 1 mps 738 mmHg 65%
    15:00 -1°C° 0 mm 1 mps 737 mmHg 70%
    16:00 -2°C° 0 mm 1 mps 737 mmHg 74%
    17:00 -2°C° 0 mm 1 mps 737 mmHg 76%
    18:00 -3°C° 0 mm 1 mps 737 mmHg 78%
    19:00 -3°C° 0 mm 1 mps 737 mmHg 80%
    20:00 -3°C° 0 mm 1 mps 737 mmHg 81%
    21:00 -3°C° 0 mm 1 mps 736 mmHg 81%
    22:00 -3°C° 0 mm 1 mps 736 mmHg 81%
    23:00 -3°C° 0 mm 1 mps 736 mmHg 81%

    Day after tomorrow, 20 January, Sunday

    Time Temperature Precipitation Wind Pressure Humidity
    00:00 -3°C° 0 mm 1 mps 736 mmHg 81%
    01:00 -3°C° 0 mm 1 mps 735 mmHg 80%
    02:00 -3°C° 0 mm 1 mps 735 mmHg 80%
    03:00 -3°C° 0 mm 1 mps 735 mmHg 79%
    04:00 -2°C° 0 mm 1 mps 734 mmHg 79%
    05:00 -2°C° 0 mm 1 mps 734 mmHg 80%
    06:00 -3°C° 0 mm 0 mps 734 mmHg 80%
    07:00 -3°C° 0 mm 0 mps 734 mmHg 81%
    08:00 -3°C° 0 mm 0 mps 734 mmHg 79%
    09:00 -2°C° 0 mm 0 mps 734 mmHg 77%
    10:00 -2°C° 0 mm 0 mps 734 mmHg 75%
    11:00 -1°C° 0 mm 0 mps 734 mmHg 72%
    12:00 0°C° 0 mm 1 mps 734 mmHg 70%
    13:00 +1°C° 0 mm 1 mps 734 mmHg 68%
    14:00 0°C° 0 mm 1 mps 734 mmHg 71%
    15:00 -1°C° 0 mm 1 mps 734 mmHg 74%
    16:00 -2°C° 0 mm 1 mps 734 mmHg 77%
    17:00 -2°C° 0 mm 1 mps 735 mmHg 79%
    18:00 -4°C° 0 mm 0 mps 735 mmHg 80%
    19:00 -5°C° 0 mm 0 mps 735 mmHg 81%
    20:00 -5°C° 0 mm 0 mps 736 mmHg 81%
    21:00 -5°C° 0 mm 0 mps 736 mmHg 81%
    22:00 -5°C° 0 mm 0 mps 737 mmHg 82%
    23:00 -5°C° 0 mm 0 mps 737 mmHg 82%

    21 January, Monday

    Time Temperature Precipitation Wind Pressure Humidity
    00:00 -5°C° 0 mm 0 mps 738 mmHg 82%
    01:00 -6°C° 0 mm 0 mps 738 mmHg 83%
    02:00 -6°C° 0 mm 0 mps 738 mmHg 83%
    03:00 -6°C° 0 mm 0 mps 738 mmHg 83%
    04:00 -6°C° 0 mm 0 mps 738 mmHg 84%
    05:00 -6°C° 0 mm 1 mps 739 mmHg 84%
    06:00 -4°C° 0 mm 1 mps 739 mmHg 84%
    07:00 -4°C° 0 mm 1 mps 739 mmHg 84%
    08:00 -3°C° 0 mm 1 mps 740 mmHg 84%
    09:00 -2°C° 0 mm 1 mps 740 mmHg 83%
    10:00 -3°C° 0 mm 0 mps 740 mmHg 83%
    11:00 -1°C° 0 mm 1 mps 740 mmHg 83%
    12:00 0°C° 0 mm 1 mps 740 mmHg 83%
    13:00 0°C° 0 mm 1 mps 740 mmHg 83%
    14:00 0°C° 0 mm 1 mps 740 mmHg 85%
    15:00 -2°C° 0 mm 0 mps 740 mmHg 88%
    16:00 -3°C° 0 mm 0 mps 740 mmHg 90%
    17:00 -3°C° 0 mm 0 mps 740 mmHg 90%
    18:00 -3°C° 0 mm 1 mps 740 mmHg 90%
    19:00 -3°C° 0 mm 1 mps 740 mmHg 90%
    20:00 -4°C° 0 mm 1 mps 740 mmHg 89%
    21:00 -4°C° 0 mm 1 mps 740 mmHg 87%
    22:00 -6°C° 0 mm 2 mps 740 mmHg 86%
    23:00 -6°C° 0 mm 2 mps 740 mmHg 85%

    22 January, Tuesday

    Time Temperature Precipitation Wind Pressure Humidity
    00:00 -7°C° 0 mm 2 mps 739 mmHg 84%
    01:00 -7°C° 0 mm 2 mps 739 mmHg 83%
    02:00 -7°C° 0 mm 2 mps 738 mmHg 83%
    03:00 -7°C° 0 mm 2 mps 738 mmHg 83%
    04:00 -7°C° 0 mm 2 mps 737 mmHg 83%
    05:00 -7°C° 0 mm 2 mps 737 mmHg 83%
    06:00 -7°C° 0 mm 2 mps 737 mmHg 83%
    07:00 -7°C° 0 mm 2 mps 736 mmHg 83%
    08:00 -7°C° 0 mm 3 mps 736 mmHg 80%
    09:00 -6°C° 0 mm 3 mps 735 mmHg 78%
    10:00 -5°C° 0 mm 3 mps 735 mmHg 76%
    11:00 -4°C° 0 mm 3 mps 734 mmHg 74%
    12:00 -2°C° 0 mm 3 mps 733 mmHg 71%
    13:00 -1°C° 0 mm 3 mps 733 mmHg 69%
    14:00 -2°C° 0 mm 3 mps 732 mmHg 72%
    15:00 -2°C° 0 mm 2 mps 731 mmHg 76%
    16:00 -3°C° 0 mm 2 mps 730 mmHg 79%
    17:00 -4°C° 0 mm 2 mps 729 mmHg 81%
    18:00 -5°C° 0 mm 2 mps 729 mmHg 82%
    19:00 -6°C° 0 mm 2 mps 728 mmHg 83%
    20:00 -6°C° 0 mm 2 mps 727 mmHg 81%
    21:00 -6°C° 0 mm 2 mps 727 mmHg 79%
    22:00 -7°C° 0 mm 2 mps 726 mmHg 77%
    23:00 -6°C° 0 mm 2 mps 725 mmHg 77%

    23 January, Wednesday

    Time Temperature Precipitation Wind Pressure Humidity
    00:00 -6°C° 0 mm 2 mps 725 mmHg 76%
    01:00 -5°C° 0 mm 2 mps 724 mmHg 76%
    02:00 -5°C° 0.1 mm 2 mps 723 mmHg 78%
    03:00 -5°C° 0.1 mm 2 mps 723 mmHg 81%
    04:00 -5°C° 0.1 mm 2 mps 722 mmHg 84%
    05:00 -5°C° 0.2 mm 2 mps 722 mmHg 86%
    06:00 -3°C° 0.2 mm 1 mps 722 mmHg 88%
    07:00 -2°C° 0.2 mm 1 mps 721 mmHg 89%
    08:00 -2°C° 0.1 mm 1 mps 721 mmHg 88%
    09:00 -1°C° 0.1 mm 1 mps 721 mmHg 86%
    10:00 0°C° 0.1 mm 1 mps 721 mmHg 85%
    11:00 +1°C° 0 mm 1 mps 720 mmHg 85%
    12:00 +1°C° 0 mm 1 mps 720 mmHg 85%
    13:00 +2°C° 0 mm 1 mps 719 mmHg 85%
    14:00 +2°C° 0 mm 1 mps 719 mmHg 88%
    15:00 +1°C° 0 mm 1 mps 718 mmHg 91%
    16:00 +1°C° 0 mm 1 mps 718 mmHg 93%
    17:00 +1°C° 0 mm 1 mps 718 mmHg 93%
    18:00 0°C° 0 mm 1 mps 717 mmHg 94%
    19:00 0°C° 0 mm 1 mps 717 mmHg 94%
    20:00 0°C° 0 mm 1 mps 717 mmHg 93%
    21:00 -1°C° 0 mm 2 mps 717 mmHg 92%
    22:00 -1°C° 0 mm 2 mps 716 mmHg 91%
    23:00 -1°C° 0.1 mm 2 mps 716 mmHg 90%
    Show more